CAPE
406 277 314 373 396 519 640 685 834 860 922 967 1033 988 801 757 983 897 721 452 208 265 127 78 61 20 24 83 470 674 845 848 717
720 483 494 580 580 602 610 617 611 814 850 1122 1120 1047 880 853 917 981 890 472 244 294 280 289 150 39 57 172 412 729 953 920 917
1233 1105 1077 1164 1229 1306 1315 890 655 627 1039 1319 1322 1289 1215 984 1068 1170 1076 680 304 354 435 416 269 144 138 301 524 720 878 1001 1177
1258 1299 1371 1405 1514 1628 1671 1529 1127 1419 1499 1615 1635 1691 1621 1452 1165 1318 1222 893 368 392 634 502 291 362 175 244 397 647 842 942 1082
1390 1345 1275 1205 1159 1068 1007 1048 1428 1637 1696 1599 1549 1397 1549 1571 1220 886 1023 884 960 659 517 659 454 336 292 297 286 376 649 845 1030
1184 1111 1017 921 767 330 150 395 211 271 609 641 786 1010 1074 931 1009 1205 940 105 747 1036 1094 900 763 400 391 437 455 399 491 553 725
806 522 181 54 0 0 0 1 7 0 0 0 0 0 0 69 472 691 855 1042 1129 1244 1125 1014 991 1008 909 986 982 584 517 505 480
349 20 0 0 0 0 0 0 0 0 0 0 0 0 0 0 0 32 209 395 598 990 964 980 1075 1081 929 785 761 990 888 737 524
312 156 53 0 4 0 0 0 0 0 0 0 0 0 0 0 0 0 0 0 39 406 515 691 969 906 1041 915 791 689 1021 1071 921
234 200 135 39 7 0 0 0 0 0 0 0 0 0 0 0 0 0 0 0 0 60 298 394 528 764 986 956 900 717 582 598 826
297 235 162 142 0 0 0 0 0 0 0 0 0 0 0 0 0 0 0 0 0 0 13 112 252 552 804 940 929 781 683 670 616
217 203 124 18 0 0 0 0 0 0 0 0 0 0 0 0 0 0 0 0 0 0 0 0 1 54 186 474 674 566 615 667 583
231 113 49 31 0 0 0 0 0 0 0 0 0 0 0 0 0 0 0 0 0 0 0 0 0 0 0 92 316 305 270 187 194
68 88 30 0 0 0 0 0 0 0 0 0 0 0 0 0 0 0 0 0 0 0 0 0 0 0 6 101 158 135 71 108 146
19 0 0 0 0 0 0 0 0 0 0 0 0 0 0 0 1 1 0 0 0 0 0 0 0 0 0 0 16 3 22 84 154
0 0 0 0 0 0 0 0 0 0 0 0 0 0 0 0 0 1 1 4 6 0 2 3 1 3 1 0 0 0 0 1 166
0 0 0 0 0 0 0 0 0 0 0 5 0 0 0 0 0 1 1 2 16 12 3 0 0 5 4 3 1 0 13 0 48
0 0 0 0 0 0 0 0 0 0 0 0 0 0 0 0 0 0 0 0 1 5 1 3 2 4 8 20 8 0 2 32 8
0 0 0 0 0 0 0 0 0 0 0 0 0 0 0 0 0 0 6 7 7 2 0 0 1 0 0 0 0 0 1 7 25
0 0 0 0 0 0 0 0 0 0 0 0 0 0 1 0 3 3 4 1 12 10 0 6 0 0 0 0 0 0 0 2 28
CIN
-113 -29 -35 -46 -70 -37 -32 -24 -269 -131 -132 -116 -81 -94 -100 -58 -35 -34 -36 -56 -87 -66 -84 -109 -124 -185 -195 -166 -44 -75 -27 -28 -22
-106 -94 -70 -43 -47 -44 -48 -50 -33 -221 -195 -175 -117 -91 -51 -45 -45 -56 -47 -60 -98 -85 -89 -93 -125 -270 -259 -197 -120 -83 -25 -19 -13
-237 -251 -268 -240 -225 -247 -255 -153 -38 -42 -275 -220 -172 -119 -101 -37 -31 -41 -77 -100 -151 -131 -93 -101 -147 -177 -246 -189 -145 -103 -76 -28 -14
-165 -178 -161 -141 -153 -162 -195 -205 -279 -268 -221 -172 -140 -98 -72 -59 -76 -45 -67 -93 -129 -165 -93 -74 -116 -104 -179 -212 -170 -127 -90 -80 -20
-97 -115 -103 -101 -85 -82 -64 -233 -162 -150 -104 -116 -116 -69 -107 -100 -80 -63 -112 -196 -115 -49 -93 -67 -78 -59 -64 -156 -162 -143 -99 -83 -64
-83 -67 -67 -62 -45 -39 -307 -310 -392 -123 -26 -25 -26 -18 -11 -20 -21 -106 -58 -458 -273 -40 -49 -59 -43 -92 -102 -135 -139 -125 -50 -33 -92
-71 -74 -100 -36 0 0 0 -125 -274 0 0 0 0 0 0 -136 -97 -67 -119 -70 -66 -53 -76 -71 -52 -44 -47 -35 -24 -34 -39 -27 -25
-104 -66 0 0 0 0 0 0 0 0 0 0 0 0 0 0 0 -70 -237 -180 -137 -26 -39 -43 -49 -59 -51 -53 -48 -23 -16 -16 -22
-66 -54 -45 -2 -46 0 0 0 0 0 0 0 0 0 0 0 0 0 0 0 -334 -150 -99 -19 -14 -37 -43 -73 -62 -64 -22 -12 -8
-93 -85 -60 -42 -6 0 0 0 0 0 0 0 0 0 0 0 0 0 0 0 0 -381 -154 -118 -97 -53 -6 -34 -46 -70 -80 -51 -15
-71 -38 -23 -13 0 0 0 0 0 0 0 0 0 0 0 0 0 0 0 0 0 0 -286 -266 -142 -55 -18 -6 -8 -16 -38 -63 -56
-67 -26 -24 -62 0 0 0 0 0 0 0 0 0 0 0 0 0 0 0 0 0 0 0 0 -71 -270 -135 -44 -28 -50 -43 -27 -13
-71 -30 -45 -53 0 0 0 0 0 0 0 0 0 0 0 0 0 0 0 0 0 0 0 0 0 0 0 -224 -99 -100 -94 -116 -96
-47 -41 -32 0 0 0 0 0 0 0 0 0 0 0 0 0 0 0 0 0 0 0 0 0 0 0 -131 -198 -180 -188 -228 -172 -124
-53 0 0 0 0 0 0 0 0 0 0 0 0 0 0 0 0 0 0 0 0 0 0 0 0 0 0 0 -402 -361 -383 -189 -110
0 0 0 0 0 0 0 0 0 0 0 0 0 0 0 0 0 0 0 0 0 0 0 0 0 0 0 0 0 -33 0 -38 -107
0 0 0 0 0 0 0 0 0 0 0 0 0 0 0 0 0 0 0 0 -1 0 0 0 0 0 0 0 0 0 -366 0 -197
0 0 0 0 0 0 0 0 0 0 0 0 0 0 0 0 0 0 0 0 0 0 0 0 0 0 -232 -287 -154 0 -78 -232 -105
0 0 0 0 0 0 0 0 0 0 0 0 0 0 0 0 0 0 0 0 0 0 0 0 0 0 0 0 0 0 -96 -241 -155
0 0 0 0 0 0 0 0 0 0 0 0 0 0 0 0 0 0 0 0 0 -254 0 -43 0 0 0 0 0 0 0 -157 -104
Wind_Speed
5 11 15 13 12 12 11 13 11 10 12 11 8 9 15 11 9 7 7 7 5 3 3 nan nan nan nan nan 9 11 12 12 11
7 4 9 11 9 9 9 11 9 26 25 11 8 10 8 10 8 8 6 5 4 5 6 5 6 nan nan 9 10 12 14 15 13
8 6 5 4 1 2 3 4 3 6 7 7 5 6 6 7 8 9 9 8 9 8 6 9 10 11 12 14 15 17 18 18 18
9 6 6 8 7 7 9 11 11 9 8 5 6 5 6 8 12 12 12 10 8 11 10 10 11 13 13 13 15 17 18 24 23
5 3 8 9 8 8 11 14 17 18 16 12 10 8 13 13 19 17 16 9 13 16 11 10 12 14 14 14 13 14 16 17 14
8 6 14 14 13 12 15 14 15 18 18 18 18 19 20 17 17 18 11 13 12 15 14 13 15 15 14 17 20 18 17 17 19
12 17 25 nan nan nan nan nan nan nan nan nan nan nan nan nan 22 21 17 10 11 12 14 17 19 20 20 21 21 21 19 20 19
22 nan nan nan nan nan nan nan nan nan nan nan nan nan nan nan nan nan 20 18 16 17 16 17 18 22 26 28 26 25 25 22 23
22 26 nan nan nan nan nan nan nan nan nan nan nan nan nan nan nan nan nan nan nan 23 24 24 22 23 23 29 34 31 29 31 31
28 28 27 nan nan nan nan nan nan nan nan nan nan nan nan nan nan nan nan nan nan nan 26 29 31 33 32 28 30 37 33 33 28
34 35 33 32 nan nan nan nan nan nan nan nan nan nan nan nan nan nan nan nan nan nan nan 30 32 37 39 33 32 34 37 37 35
32 33 31 nan nan nan nan nan nan nan nan nan nan nan nan nan nan nan nan nan nan nan nan nan nan nan 34 34 35 36 38 46 45
36 34 nan nan nan nan nan nan nan nan nan nan nan nan nan nan nan nan nan nan nan nan nan nan nan nan nan nan 33 36 32 45 51
nan nan nan nan nan nan nan nan nan nan nan nan nan nan nan nan nan nan nan nan nan nan nan nan nan nan nan 30 33 38 nan 38 42
nan nan nan nan nan nan nan nan nan nan nan nan nan nan nan nan nan nan nan nan nan nan nan nan nan nan nan nan nan nan nan nan 41
nan nan nan nan nan nan nan nan nan nan nan nan nan nan nan nan nan nan nan nan nan nan nan nan nan nan nan nan nan nan nan nan 43
nan nan nan nan nan nan nan nan nan nan nan nan nan nan nan nan nan nan nan nan nan nan nan nan nan nan nan nan nan nan nan nan nan
nan nan nan nan nan nan nan nan nan nan nan nan nan nan nan nan nan nan nan nan nan nan nan nan nan nan nan nan nan nan nan nan nan
nan nan nan nan nan nan nan nan nan nan nan nan nan nan nan nan nan nan nan nan nan nan nan nan nan nan nan nan nan nan nan nan nan
nan nan nan nan nan nan nan nan nan nan nan nan nan nan nan nan nan nan nan nan nan nan nan nan nan nan nan nan nan nan nan nan nan
Wind_Direction
31 59 79 69 66 77 70 68 54 62 59 54 47 46 51 41 34 48 38 14 358 358 356 nan nan nan nan nan 236 227 238 236 229
177 101 78 74 54 58 61 52 20 343 59 48 40 50 41 44 11 18 46 46 21 10 344 329 325 nan nan 292 285 279 271 260 255
174 182 174 165 169 284 321 19 56 5 17 18 353 5 16 357 353 350 0 19 27 31 27 349 329 322 316 305 300 297 288 283 270
177 211 211 195 198 225 249 260 272 291 295 304 309 321 314 315 312 316 316 342 28 26 11 2 353 341 325 308 305 304 295 296 277
180 240 272 263 242 251 242 248 254 264 277 286 272 286 274 277 288 281 325 303 9 10 347 344 344 325 322 318 320 308 299 308 282
242 314 291 279 264 251 249 254 265 266 267 272 273 270 270 269 281 305 327 327 333 351 350 330 329 322 314 316 314 311 308 300 291
294 276 293 nan nan nan nan nan nan nan nan nan nan nan nan nan 272 279 295 307 338 333 314 304 306 307 303 300 303 299 301 298 299
294 nan nan nan nan nan nan nan nan nan nan nan nan nan nan nan nan nan 286 292 304 313 310 300 291 291 294 291 288 290 283 284 293
293 291 nan nan nan nan nan nan nan nan nan nan nan nan nan nan nan nan nan nan nan 303 309 317 319 314 305 290 281 282 284 286 279
281 290 290 nan nan nan nan nan nan nan nan nan nan nan nan nan nan nan nan nan nan nan 298 302 309 315 308 284 268 271 274 285 273
279 277 275 272 nan nan nan nan nan nan nan nan nan nan nan nan nan nan nan nan nan nan nan 301 304 307 306 289 267 263 264 266 268
270 271 275 nan nan nan nan nan nan nan nan nan nan nan nan nan nan nan nan nan nan nan nan nan nan nan 288 280 271 268 261 262 258
266 270 nan nan nan nan nan nan nan nan nan nan nan nan nan nan nan nan nan nan nan nan nan nan nan nan nan nan 265 267 262 263 261
nan nan nan nan nan nan nan nan nan nan nan nan nan nan nan nan nan nan nan nan nan nan nan nan nan nan nan 279 267 254 nan 263 263
nan nan nan nan nan nan nan nan nan nan nan nan nan nan nan nan nan nan nan nan nan nan nan nan nan nan nan nan nan nan nan nan 268
nan nan nan nan nan nan nan nan nan nan nan nan nan nan nan nan nan nan nan nan nan nan nan nan nan nan nan nan nan nan nan nan 269
nan nan nan nan nan nan nan nan nan nan nan nan nan nan nan nan nan nan nan nan nan nan nan nan nan nan nan nan nan nan nan nan nan
nan nan nan nan nan nan nan nan nan nan nan nan nan nan nan nan nan nan nan nan nan nan nan nan nan nan nan nan nan nan nan nan nan
nan nan nan nan nan nan nan nan nan nan nan nan nan nan nan nan nan nan nan nan nan nan nan nan nan nan nan nan nan nan nan nan nan
nan nan nan nan nan nan nan nan nan nan nan nan nan nan nan nan nan nan nan nan nan nan nan nan nan nan nan nan nan nan nan nan nan